Poplar Bluff, MO

12:37 PM CDT on August 17, 2019 (GMT -0500)
Poplar Bluff Municipal

Weather History for KPOF - June, 2019

Change the Weather History Date:

Friday, June 7, 2019

  Actual Average Record
Temperature  
Mean Temperature 74 °F -  
Max Temperature 81 °F 84 °F 98 °F (1933)
Min Temperature 69 °F 61 °F 46 °F (1928)
Cooling Degree Days 9    
Growing Degree Days 24 (Base 50)    
Moisture  
Dew Point 71 °F    
Average Humidity 94    
Maximum Humidity 100    
Minimum Humidity 74    
Precipitation  
Precipitation 0.70 in - - ()
Sea Level Pressure  
Sea Level Pressure 29.73 in    
Wind  
Wind Speed 6 mph (NE)    
Max Wind Speed 16 mph    
Max Gust Speed 28 mph    
Visibility 9 miles    
Events Fog , Rain    
Averages and records for this station are not official NWS values.
T = Trace of Precipitation, MM = Missing Value Source: NWS Daily Summary

Daily Weather History Graph

Daily Weather History Graph

Search for Another Location

Airport or City:

Astronomy

Jun. 07, 2019 Rise Set
Actual Time 5:42 AM CDT 8:18 PM CDT
Civil Twilight 5:11 AM CDT 8:48 PM CDT
Nautical Twilight 4:34 AM CDT 9:26 PM CDT
Astronomical Twilight 3:52 AM CDT 10:08 PM CDT
Moon 9:57 AM CDT (6/7) No Moon Set
Length of Visible Light 15h 36m
Length of Day
14h 35m
Waxing Crescent, 22% of the Moon is Illuminated
Jun 7
Waxing Crescent
Jun 10
First Quarter
Jun 17
Full
Jun 25
Last Quarter
Jul 2
New

Hourly Weather History & Observations

Time (CDT) Temp. Dew Point Humidity Pressure Visibility Wind Dir Wind Speed Gust Speed Precip Events Conditions
12:53 AM 71.1 °F 71.1 °F 100% 29.72 in 9.0 mi NE 3.5 mph - N/A   Overcast
1:53 AM 71.1 °F 71.1 °F 100% 29.72 in 8.0 mi East 3.5 mph - N/A   Overcast
2:53 AM 71.1 °F 71.1 °F 100% 29.71 in 10.0 mi East 3.5 mph - N/A   Partly Cloudy
3:53 AM 71.1 °F 71.1 °F 100% 29.70 in 10.0 mi Calm Calm - 0.02 in Rain Light Rain
4:05 AM 71.1 °F 71.1 °F 100% 29.72 in 10.0 mi Calm Calm - 0.00 in   Mostly Cloudy
4:40 AM 71.1 °F 71.1 °F 100% 29.70 in 7.0 mi NNE 5.8 mph - 0.01 in Rain Light Rain
4:53 AM 71.1 °F 71.1 °F 100% 29.69 in 7.0 mi NNE 5.8 mph - 0.01 in Rain Light Rain
5:09 AM 71.1 °F 71.1 °F 100% 29.70 in 9.0 mi NNE 5.8 mph - 0.01 in Rain Light Rain
5:18 AM 71.1 °F 71.1 °F 100% 29.71 in 9.0 mi NNE 5.8 mph - 0.01 in Rain Light Rain
5:53 AM 71.1 °F 71.1 °F 100% 29.70 in 8.0 mi NNE 5.8 mph - 0.01 in Rain Light Rain
6:21 AM 71.1 °F 71.1 °F 100% 29.73 in 8.0 mi NNE 6.9 mph - 0.00 in   Mostly Cloudy
6:32 AM 71.1 °F 71.1 °F 100% 29.73 in 9.0 mi NNE 5.8 mph - 0.00 in   Mostly Cloudy
6:46 AM 71.1 °F 71.1 °F 100% 29.74 in 9.0 mi NNE 3.5 mph - 0.00 in   Mostly Cloudy
6:53 AM 71.1 °F 71.1 °F 100% 29.73 in 9.0 mi NE 4.6 mph - 0.00 in   Mostly Cloudy
7:06 AM 72.0 °F 71.1 °F 97% 29.74 in 9.0 mi NE 3.5 mph - N/A   Mostly Cloudy
7:15 AM 72.0 °F 71.1 °F 97% 29.74 in 10.0 mi NNE 3.5 mph - N/A   Mostly Cloudy
7:23 AM 72.0 °F 71.1 °F 97% 29.74 in 9.0 mi NNE 4.6 mph - N/A   Overcast
7:29 AM 72.0 °F 71.1 °F 97% 29.74 in 10.0 mi NNE 4.6 mph - N/A   Overcast
7:44 AM 72.0 °F 71.1 °F 97% 29.74 in 10.0 mi NNE 5.8 mph - N/A   Overcast
7:53 AM 72.0 °F 71.1 °F 97% 29.74 in 10.0 mi NNE 5.8 mph - N/A   Overcast
8:30 AM 72.0 °F 71.1 °F 97% 29.75 in 8.0 mi NNE 8.1 mph - N/A   Overcast
8:53 AM 72.0 °F 71.1 °F 97% 29.74 in 5.0 mi NNE 8.1 mph - 0.00 in Rain Light Rain
9:09 AM 73.0 °F 72.0 °F 96% 29.75 in 10.0 mi NE 9.2 mph - 0.01 in Rain Light Rain
9:24 AM 73.0 °F 72.0 °F 96% 29.75 in 10.0 mi NNE 8.1 mph - 0.01 in   Overcast
9:31 AM 73.0 °F 72.0 °F 96% 29.75 in 10.0 mi NNE 11.5 mph - 0.01 in   Overcast
9:53 AM 73.0 °F 72.0 °F 96% 29.74 in 10.0 mi NE 9.2 mph - 0.01 in   Overcast
10:01 AM 73.0 °F 71.1 °F 93% 29.75 in 9.0 mi NNE 9.2 mph - N/A   Overcast
10:38 AM 73.9 °F 72.0 °F 93% 29.75 in 9.0 mi NE 6.9 mph - 0.00 in Rain Light Rain
10:53 AM 73.0 °F 71.1 °F 93% 29.75 in 7.0 mi ENE 9.2 mph 17.3 mph 0.00 in Rain Light Rain
11:04 AM 73.0 °F 71.1 °F 93% 29.75 in 5.0 mi ENE 9.2 mph - 0.01 in Rain Light Rain
11:53 AM 73.9 °F 72.0 °F 93% 29.75 in 10.0 mi ENE 5.8 mph - 0.05 in   Mostly Cloudy
12:53 PM 75.9 °F 72.0 °F 87% 29.73 in 10.0 mi ENE 9.2 mph - 0.01 in   Overcast
1:40 PM 77.0 °F 73.0 °F 88% 29.74 in 10.0 mi East 11.5 mph 16.1 mph 0.00 in   Mostly Cloudy
1:53 PM 78.1 °F 72.0 °F 81% 29.72 in 10.0 mi ESE 11.5 mph - 0.00 in   Mostly Cloudy
2:53 PM 78.1 °F 72.0 °F 81% 29.71 in 10.0 mi ESE 9.2 mph - N/A   Mostly Cloudy
3:53 PM 78.1 °F 72.0 °F 81% 29.70 in 8.0 mi SSE 3.5 mph - 0.02 in Rain Light Rain
4:16 PM 75.9 °F 73.0 °F 91% 29.72 in 1.8 mi ESE 8.1 mph - 0.02 in Rain Heavy Rain
4:28 PM 73.0 °F 71.1 °F 93% 29.72 in 0.5 mi South 13.8 mph 27.6 mph 0.24 in Fog , Rain Heavy Rain
4:38 PM 73.9 °F 71.1 °F 91% 29.72 in 4.0 mi ENE 4.6 mph - 0.52 in Rain Light Rain
4:48 PM 75.2 °F 71.6 °F 89% 29.72 in 10.0 mi North - - 0.52 in   Scattered Clouds
4:53 PM 75.9 °F 72.0 °F 87% 29.71 in 10.0 mi ENE 3.5 mph - 0.52 in   Partly Cloudy
5:53 PM 79.0 °F 70.0 °F 74% 29.71 in 10.0 mi ENE 16.1 mph 24.2 mph 0.00 in Rain Light Rain
6:53 PM 77.0 °F 69.1 °F 76% 29.72 in 10.0 mi NNE 12.7 mph - 0.00 in   Partly Cloudy
7:53 PM 70.0 °F 68.0 °F 93% 29.75 in 7.0 mi NE 8.1 mph 19.6 mph 0.05 in Rain Light Rain
8:53 PM 69.1 °F 68.0 °F 96% 29.74 in 10.0 mi North 4.6 mph - 0.00 in   Partly Cloudy
9:53 PM 70.0 °F 69.1 °F 97% 29.75 in 10.0 mi North 6.9 mph - N/A   Partly Cloudy
10:53 PM 71.1 °F 70.0 °F 96% 29.75 in 10.0 mi North 4.6 mph - N/A   Overcast
11:53 PM 71.1 °F 70.0 °F 96% 29.75 in 10.0 mi North 5.8 mph - N/A   Overcast